DW1253 Weather Reports


time (UTC)temp
F
wind
direction
speed
knots
gust
knots
rain 1hr
in
rain 24hr
in
rain mn
in
humidity
%
barometer
mb
20260901133842 75 281 1.7 6.1 0.00 0.27 0.02 92 1014.9
20260901133357 75 67 0.9 3.5 0.00 0.27 0.02 91 1014.9
20260901132910 75 176 0.9 5.2 0.00 0.27 0.02 91 1014.8
20260901132344 75 195 1.7 5.2 0.00 0.27 0.02 92 1014.7
20260901131859 75 311 2.6 4.3 0.00 0.27 0.02 93 1014.9
20260901131333 75 215 1.7 5.2 0.00 0.27 0.02 94 1014.7
20260901130847 74 242 2.6 5.2 0.00 0.27 0.02 95 1014.6
20260901130347 74 204 1.7 5.2 0.00 0.27 0.02 96 1014.8
20260901125835 73 192 1.7 4.3 0.00 0.28 0.02 97 1014.8
20260901125349 72 188 0.9 5.2 0.00 0.28 0.02 97 1015.0
20260901124843 72 205 1.7 5.2 0.00 0.28 0.02 97 1014.9
20260901124336 72 180 1.7 5.2 0.00 0.28 0.02 97 1014.9
20260901123833 72 193 0.9 4.3 0.00 0.28 0.02 97 1015.0
20260901123349 72 148 0.9 7.8 0.00 0.28 0.02 97 1014.9
20260901122842 72 216 0.9 6.1 0.00 0.28 0.02 97 1014.9
20260901122337 72 275 1.7 6.1 0.00 0.28 0.02 97 1014.8
20260901121851 71 145 0.9 8.7 0.00 0.28 0.02 97 1014.8
20260901121347 71 69 0.9 5.2 0.00 0.28 0.02 97 1014.7
20260901120841 71 128 1.7 4.3 0.00 0.28 0.02 97 1014.8
20260901120337 71 64 0.9 2.6 0.00 0.28 0.02 97 1014.6
20260901115845 71 196 0.9 3.5 0.00 0.28 0.02 97 1014.6
20260901115400 71 155 0.9 7.0 0.00 0.28 0.02 97 1014.5
20260901114851 71 92 0.9 7.0 0.00 0.28 0.02 97 1014.7
20260901114346 70 88 0.9 3.5 0.00 0.28 0.02 97 1014.6
20260901113841 70 158 0.9 6.1 0.00 0.28 0.02 97 1014.5
20260901113335 70 84 1.7 6.1 0.00 0.28 0.02 97 1014.4
20260901112833 70 173 1.7 5.2 0.00 0.28 0.02 97 1014.4
20260901112348 70 158 1.7 5.2 0.00 0.28 0.02 97 1014.4
20260901111903 70 69 1.7 5.2 0.00 0.28 0.02 96 1014.4
20260901111335 70 215 1.7 5.2 0.00 0.28 0.02 96 1014.3
20260901110852 69 165 0.9 4.3 0.00 0.28 0.02 96 1014.3
20260901110409 69 272 1.7 7.0 0.00 0.28 0.02 96 1014.3
20260901105835 69 285 2.6 7.0 0.00 0.28 0.02 97 1014.3
20260901105351 69 201 1.7 5.2 0.00 0.28 0.02 96 1014.2
20260901104846 69 194 1.7 6.1 0.00 0.28 0.02 96 1014.1
20260901104341 69 200 1.7 5.2 0.00 0.28 0.02 96 1014.2
20260901103835 69 196 2.6 6.1 0.00 0.28 0.02 96 1014.2
20260901103350 69 223 1.7 6.1 0.00 0.28 0.02 96 1014.1
20260901102843 69 185 2.6 4.3 0.00 0.28 0.02 96 1014.1
20260901102338 69 225 1.7 7.0 0.00 0.28 0.02 96 1014.0
20260901101851 69 205 2.6 7.0 0.00 0.28 0.02 96 1013.9
20260901101346 69 216 0.9 5.2 0.00 0.28 0.02 96 1013.9
20260901100901 69 191 1.7 6.1 0.00 0.28 0.02 96 1013.7
20260901100356 69 175 0.9 8.7 0.00 0.28 0.02 96 1013.7
20260901095842 69 209 1.7 3.5 0.00 0.28 0.02 96 1013.8
20260901095335 69 194 1.7 6.1 0.00 0.28 0.02 96 1013.8
20260901094850 69 244 2.6 6.1 0.00 0.28 0.02 96 1013.7
20260901094344 69 161 1.7 8.7 0.00 0.28 0.02 96 1013.8
20260901093900 69 221 2.6 8.7 0.00 0.28 0.02 96 1013.8
20260901093334 69 234 1.7 3.5 0.00 0.28 0.02 96 1013.8
20260901092847 69 219 1.7 4.3 0.00 0.28 0.02 96 1013.8
20260901092342 69 178 0.0 3.5 0.00 0.28 0.02 96 1013.8
20260901091840 69 178 0.9 3.5 0.00 0.28 0.02 96 1013.7
20260901091334 69 276 0.9 3.5 0.00 0.28 0.02 96 1013.7
20260901090848 69 97 0.0 2.6 0.00 0.28 0.02 96 1013.7
20260901090404 69 167 0.0 1.7 0.00 0.28 0.02 96 1013.8
20260901085848 69 167 0.9 2.6 0.00 0.29 0.02 96 1013.7
20260901085341 69 167 0.0 2.6 0.00 0.29 0.02 96 1013.8
20260901084835 69 167 0.9 2.6 0.00 0.29 0.02 96 1013.8
20260901084348 69 167 0.0 1.7 0.00 0.29 0.02 96 1013.8
20260901083842 69 167 0.0 2.6 0.00 0.29 0.02 96 1013.8
20260901083338 69 167 0.0 3.5 0.00 0.29 0.02 96 1013.8
20260901082833 69 167 0.9 2.6 0.00 0.29 0.02 96 1013.7
20260901082408 69 167 0.0 1.7 0.00 0.29 0.02 96 1013.8
20260901081840 68 163 0.0 1.7 0.00 0.29 0.02 96 1013.9
20260901081335 68 163 0.0 1.7 0.00 0.29 0.02 96 1013.9
20260901080851 68 163 0.0 1.7 0.00 0.29 0.02 96 1013.9
20260901080345 68 163 0.0 2.6 0.00 0.29 0.02 96 1013.8
20260901075833 68 193 0.0 1.7 0.00 0.32 0.02 96 1013.9
20260901075349 68 193 0.0 2.6 0.00 0.32 0.02 96 1013.9
20260901074844 68 193 0.9 2.6 0.00 0.32 0.02 96 1014.1
20260901074338 68 193 0.0 1.7 0.00 0.32 0.02 96 1014.2
20260901073912 68 193 0.0 1.7 0.00 0.32 0.02 96 1014.3
20260901073405 68 193 0.0 2.6 0.00 0.32 0.02 96 1014.4
20260901072839 68 193 0.9 2.6 0.00 0.32 0.02 96 1014.4
20260901072354 68 162 0.0 2.6 0.00 0.32 0.02 96 1014.5
20260901071847 68 162 0.9 2.6 0.00 0.32 0.02 96 1014.4
20260901071342 68 188 0.0 2.6 0.00 0.32 0.02 96 1014.5
20260901070857 68 197 0.0 2.6 0.00 0.32 0.02 96 1014.7
20260901070335 68 198 0.0 1.7 0.00 0.32 0.02 96 1014.8
20260901065900 69 198 0.9 1.7 0.00 0.33 0.02 96 1014.9
20260901065336 68 198 0.0 1.7 0.00 0.33 0.02 96 1014.9
20260901064831 69 198 0.0 1.7 0.00 0.33 0.02 96 1014.9
20260901064346 69 198 0.9 1.7 0.00 0.33 0.02 96 1015.0
20260901063842 69 198 0.0 0.9 0.00 0.33 0.02 96 1015.0
20260901063355 69 198 0.0 1.7 0.00 0.33 0.02 96 1015.1
20260901062849 69 198 0.0 1.7 0.00 0.33 0.02 96 1015.1
20260901062343 69 198 0.0 1.7 0.00 0.33 0.02 96 1015.2
20260901061839 69 198 0.0 1.7 0.00 0.33 0.02 96 1015.3
20260901061332 69 198 0.0 1.7 0.00 0.33 0.02 96 1015.3
20260901060846 69 198 0.9 1.7 0.00 0.33 0.02 96 1015.2
20260901060341 69 198 0.0 1.7 0.00 0.33 0.02 96 1015.2
20260901055848 69 198 0.0 2.6 0.00 0.33 0.02 96 1015.3
20260901055341 69 198 0.9 2.6 0.00 0.33 0.02 96 1015.3
20260901054836 68 212 0.0 1.7 0.00 0.33 0.02 96 1015.3
20260901054409 68 212 0.9 1.7 0.00 0.33 0.02 96 1015.2
20260901053903 68 212 0.0 1.7 0.00 0.33 0.02 96 1015.3
20260901053336 68 212 0.9 1.7 0.00 0.33 0.02 96 1015.2
20260901052911 68 212 0.9 2.6 0.00 0.33 0.02 96 1015.3
20260901052344 68 268 0.9 2.6 0.01 0.33 0.02 96 1015.6
20260901051838 68 236 0.9 2.6 0.01 0.33 0.02 96 1015.6
20260901051352 68 227 0.0 1.7 0.01 0.33 0.02 96 1015.7
20260901050907 68 251 0.0 1.7 0.01 0.33 0.02 96 1015.7
20260901050341 68 251 0.9 1.7 0.02 0.33 0.02 96 1015.8
20260901045848 68 251 0.9 1.7 0.02 0.34 0.02 96 1015.8
20260901045342 68 251 0.9 1.7 0.03 0.34 0.02 95 1015.8
20260901044837 68 251 0.9 1.7 0.03 0.34 0.02 95 1015.9
20260901044351 68 251 0.0 2.6 0.03 0.34 0.02 95 1015.9
20260901043904 69 251 0.9 2.6 0.03 0.34 0.02 96 1015.9
20260901043338 69 251 0.9 3.5 0.03 0.34 0.02 96 1015.9
20260901042836 69 251 2.6 7.0 0.02 0.33 0.01 96 1016.0
20260901042405 69 238 1.7 7.0 0.02 0.33 0.01 96 1016.1
20260901041841 69 236 1.7 4.3 0.02 0.33 0.01 96 1016.0
20260901041336 69 220 1.7 4.3 0.02 0.33 0.01 96 1016.0
20260901040910 69 240 0.9 2.6 0.01 0.32 0.00 96 1016.0
20260901040344 68 253 0.9 2.6 0.01 0.32 0.00 96 1016.0
20260901035911 68 253 0.9 2.6 0.01 0.35 0.32 96 1016.0
20260901035345 68 188 0.9 2.6 0.00 0.34 0.31 96 1016.1
20260901034839 68 269 0.0 0.0 0.00 0.34 0.31 96 1016.1
20260901034413 68 269 0.0 0.0 0.00 0.34 0.31 96 1016.1
20260901033845 68 269 0.0 0.0 0.00 0.34 0.31 96 1016.2
20260901033339 68 269 0.0 0.0 0.00 0.34 0.31 96 1016.1
20260901032852 68 269 0.0 0.0 0.00 0.34 0.31 96 1016.1
20260901032348 68 269 0.0 0.0 0.00 0.34 0.31 96 1016.2
20260901031843 68 269 0.0 0.0 0.00 0.34 0.31 96 1016.3
20260901031338 68 269 0.0 0.0 0.00 0.34 0.31 96 1016.3
20260901030853 68 269 0.0 0.0 0.00 0.34 0.31 95 1016.2
20260901030407 68 269 0.0 0.0 0.00 0.34 0.31 95 1016.3
20260901025832 68 269 0.0 0.0 0.00 0.43 0.31 95 1016.4
20260901025347 68 269 0.0 0.0 0.00 0.43 0.31 95 1016.5
20260901024841 68 269 0.0 0.0 0.00 0.43 0.31 95 1016.4
20260901024334 68 268 0.0 0.0 0.00 0.43 0.31 95 1016.5
20260901023851 68 269 0.0 1.7 0.00 0.43 0.31 95 1016.5
20260901023345 68 269 0.0 1.7 0.00 0.43 0.31 95 1016.5
20260901022839 68 269 0.9 1.7 0.00 0.43 0.31 95 1016.6
20260901022355 68 269 0.9 1.7 0.00 0.43 0.31 95 1016.7
20260901021847 68 269 0.9 1.7 0.00 0.43 0.31 95 1016.8
20260901021340 68 281 0.0 1.7 0.00 0.43 0.31 95 1016.8
20260901020835 68 281 0.9 1.7 0.00 0.43 0.31 95 1017.0
20260901020329 68 284 0.0 2.6 0.00 0.43 0.31 95 1016.9
20260901015837 68 202 0.9 2.6 0.00 0.46 0.31 95 1016.9
20260901015353 68 242 0.9 1.7 0.00 0.46 0.31 95 1017.0
20260901014846 68 242 0.9 1.7 0.00 0.46 0.31 95 1017.0
20260901014400 68 242 0.9 1.7 0.00 0.46 0.31 95 1017.0
20260901013832 68 242 0.0 1.7 0.00 0.46 0.31 95 1016.9
20260901013347 68 242 0.0 1.7 0.00 0.46 0.31 95 1016.8
20260901012905 68 242 0.0 1.7 0.00 0.46 0.31 95 1017.0
20260901012344 68 242 0.0 0.9 0.00 0.46 0.31 95 1016.9
20260901011838 68 242 0.0 0.9 0.00 0.46 0.31 95 1016.9
20260901011352 68 242 0.0 0.9 0.00 0.46 0.31 95 1017.0
20260901010846 68 242 0.0 0.9 0.00 0.46 0.31 95 1017.0
20260901010341 68 242 0.0 1.7 0.00 0.46 0.31 95 1017.0
20260901005908 68 242 0.9 1.7 0.00 0.47 0.31 94 1016.9
20260901005341 68 242 0.9 0.9 0.00 0.47 0.31 94 1016.9
20260901004835 68 242 0.0 1.7 0.00 0.47 0.31 94 1016.9
20260901004351 69 242 0.0 2.6 0.00 0.47 0.31 94 1016.9
20260901003906 68 242 0.9 2.6 0.00 0.47 0.31 94 1016.8
20260901003401 69 242 0.9 2.6 0.00 0.47 0.31 94 1017.0
20260901002854 69 242 0.0 1.7 0.00 0.47 0.31 94 1016.7
20260901002348 69 242 0.0 1.7 0.00 0.47 0.31 94 1016.7
20260901001843 69 242 0.0 1.7 0.00 0.47 0.31 94 1016.6
20260901001358 69 242 0.9 1.7 0.00 0.47 0.31 94 1016.6
20260901000851 69 242 0.0 2.6 0.00 0.47 0.31 94 1016.6
20260901000347 69 242 0.0 2.6 0.00 0.47 0.31 94 1016.7
20260831235835 69 225 0.9 1.7 0.00 0.48 0.31 93 1016.6
20260831235410 69 225 0.9 2.6 0.00 0.48 0.31 93 1016.7
20260831234904 69 225 0.9 2.6 0.00 0.48 0.31 93 1016.7
20260831234339 69 241 0.9 3.5 0.00 0.48 0.31 93 1016.7
20260831233852 69 238 1.7 3.5 0.00 0.48 0.31 93 1016.7
20260831233346 69 242 0.9 3.5 0.00 0.48 0.31 93 1016.7
20260831232840 69 209 0.9 2.6 0.00 0.48 0.31 93 1016.7
20260831232355 70 209 0.9 2.6 0.00 0.48 0.31 93 1016.7
20260831231849 70 209 1.7 2.6 0.00 0.48 0.31 93 1016.7
20260831231345 70 209 0.9 2.6 0.00 0.48 0.31 93 1016.7
20260831230838 70 209 1.7 2.6 0.00 0.48 0.31 93 1016.7
20260831230334 70 206 0.9 1.7 0.00 0.48 0.31 93 1016.7
20260831225841 70 206 0.9 4.3 0.00 0.49 0.31 93 1016.8
20260831225341 70 206 1.7 4.3 0.00 0.49 0.31 93 1016.7
20260831224835 70 223 1.7 4.3 0.00 0.49 0.31 93 1016.6
20260831224349 70 237 2.6 4.3 0.00 0.49 0.31 93 1016.8
20260831223845 70 198 0.9 4.3 0.00 0.49 0.31 93 1016.8
20260831223339 70 166 1.7 4.3 0.00 0.49 0.31 93 1016.9
20260831222834 70 192 0.9 2.6 0.00 0.49 0.31 93 1017.0
20260831222349 71 173 0.9 2.6 0.00 0.49 0.31 93 1016.9
20260831221843 71 173 0.9 4.3 0.00 0.49 0.31 93 1017.0
20260831221337 71 238 1.7 4.3 0.00 0.49 0.31 93 1017.0
20260831220851 71 236 0.0 6.1 0.00 0.49 0.31 93 1017.2
20260831220348 71 219 2.6 6.1 0.00 0.49 0.31 93 1017.2
20260831215836 71 207 0.9 7.8 0.00 0.49 0.31 93 1017.0
20260831215351 71 238 2.6 7.8 0.00 0.49 0.31 93 1016.8
20260831214845 71 276 3.5 7.0 0.00 0.49 0.31 93 1017.0
20260831214401 71 144 1.7 5.2 0.00 0.49 0.31 93 1017.1
20260831213833 71 190 1.7 5.2 0.00 0.49 0.31 93 1017.2
20260831213348 71 206 1.7 4.3 0.00 0.49 0.31 93 1017.3
20260831212842 71 229 1.7 5.2 0.00 0.49 0.31 93 1017.1
20260831212337 71 210 1.7 5.2 0.00 0.49 0.31 93 1017.1
20260831211851 71 214 0.9 4.3 0.00 0.49 0.31 93 1017.0
20260831211346 71 221 0.9 10.4 0.00 0.49 0.31 93 1017.0
20260831210845 71 215 4.3 10.4 0.00 0.49 0.31 93 1016.8
20260831210341 71 228 2.6 7.0 0.00 0.49 0.31 93 1016.8
20260831205848 71 215 1.7 8.7 0.00 0.49 0.31 94 1016.7
20260831205342 71 193 3.5 8.7 0.01 0.49 0.31 93 1016.7
20260831204838 71 186 1.7 6.1 0.01 0.49 0.31 93 1016.8
20260831204333 71 164 1.7 7.8 0.01 0.49 0.31 93 1016.7
20260831203848 71 220 2.6 6.1 0.01 0.49 0.31 93 1016.7
20260831203342 71 168 1.7 6.1 0.01 0.49 0.31 93 1016.8
20260831202856 71 188 0.9 6.1 0.01 0.49 0.31 93 1016.9
20260831202411 71 227 2.6 7.0 0.01 0.49 0.31 94 1016.9
20260831201903 72 237 1.7 7.0 0.01 0.49 0.31 94 1016.9
20260831201358 72 233 2.6 7.0 0.01 0.49 0.31 94 1017.0
20260831200850 72 238 2.6 7.0 0.01 0.49 0.31 94 1017.0
20260831200407 72 215 2.6 7.0 0.01 0.49 0.31 94 1017.0
20260831195833 72 244 2.6 7.0 0.01 0.49 0.31 94 1017.0
20260831195407 72 262 2.6 7.0 0.00 0.48 0.30 94 1017.0
20260831194841 72 200 1.7 4.3 0.00 0.48 0.30 94 1017.2
20260831194336 72 238 1.7 6.1 0.00 0.48 0.30 94 1017.2
20260831193851 72 251 0.9 7.0 0.00 0.48 0.30 94 1017.4
20260831193346 72 232 1.7 7.0 0.00 0.48 0.30 94 1017.4
20260831192841 72 207 3.5 7.8 0.00 0.48 0.30 94 1017.4
20260831192336 72 223 0.9 6.1 0.00 0.48 0.30 94 1017.4
20260831191749 71 212 0.9 2.6 0.00 0.48 0.30 94 1017.5
20260831190909 71 202 0.9 2.6 0.00 0.48 0.30 94 1017.6
20260831190343 71 156 0.0 3.5 0.00 0.48 0.30 94 1017.6
20260831185850 71 156 0.9 3.5 0.00 0.49 0.30 94 1017.6
20260831185344 71 201 0.9 2.6 0.01 0.49 0.30 94 1017.5
20260831184839 71 187 0.9 0.9 0.01 0.49 0.30 94 1017.7
20260831184333 71 187 0.0 0.9 0.01 0.49 0.30 94 1017.9
20260831183848 71 186 0.0 2.6 0.01 0.49 0.30 94 1017.9
20260831183342 71 186 0.0 3.5 0.01 0.49 0.30 94 1017.9
20260831182836 71 213 1.7 3.5 0.01 0.49 0.30 94 1017.9
20260831182350 71 180 0.9 5.2 0.01 0.49 0.30 94 1017.9
20260831181845 71 180 1.7 5.2 0.01 0.49 0.30 94 1018.0
20260831181344 71 208 1.7 6.1 0.01 0.49 0.30 95 1017.9
20260831180839 71 226 1.7 5.2 0.01 0.49 0.30 94 1017.8
20260831180334 71 231 1.7 5.2 0.01 0.49 0.30 95 1017.8
20260831175839 71 200 1.7 4.3 0.01 0.49 0.30 95 1017.9
20260831175333 71 261 1.7 4.3 0.00 0.48 0.29 95 1017.7
20260831174848 71 191 0.9 3.5 0.00 0.48 0.29 95 1017.7
20260831174343 71 221 1.7 3.5 0.00 0.48 0.29 95 1017.9
20260831173837 71 207 0.9 2.6 0.00 0.48 0.29 95 1017.7
20260831173332 70 244 0.9 3.5 0.01 0.48 0.29 95 1017.7
20260831172847 70 263 0.9 3.5 0.01 0.48 0.29 95 1017.7
20260831172341 70 208 0.9 3.5 0.02 0.48 0.29 95 1017.8
20260831171838 70 192 0.9 4.3 0.05 0.48 0.29 95 1017.8
20260831171352 70 236 1.7 4.3 0.07 0.48 0.29 96 1017.9
20260831170848 69 222 0.9 2.6 0.07 0.48 0.29 96 1018.0
20260831170343 69 222 0.0 2.6 0.09 0.48 0.29 96 1017.8
20260831165851 69 137 0.9 2.6 0.09 0.48 0.29 96 1017.9
20260831165406 69 244 0.9 2.6 0.09 0.48 0.29 96 1018.1
20260831164839 68 154 0.9 2.6 0.09 0.48 0.29 96 1018.0
20260831164413 67 154 0.0 2.6 0.09 0.48 0.29 96 1018.0
20260831163847 67 209 0.0 3.5 0.09 0.48 0.29 96 1018.0
20260831163342 67 217 1.7 3.5 0.08 0.47 0.28 96 1018.0
20260831162841 67 294 0.9 2.6 0.08 0.47 0.28 96 1018.1
20260831162408 67 233 0.9 3.5 0.08 0.46 0.27 96 1018.2
20260831161901 67 242 0.9 3.5 0.05 0.43 0.24 96 1018.2
20260831161413 67 142 0.0 1.7 0.03 0.41 0.22 96 1018.2
20260831160847 66 142 0.0 3.5 0.03 0.41 0.22 96 1018.3
20260831160346 66 115 0.0 0.9 0.01 0.39 0.20 96 1018.3
20260831155832 66 115 0.0 1.7 0.01 0.39 0.20 96 1018.3
20260831155348 66 115 0.0 2.6 0.01 0.39 0.20 96 1018.4
20260831154843 66 218 0.9 3.5 0.01 0.39 0.20 96 1018.5
20260831154337 66 217 1.7 3.5 0.01 0.39 0.20 96 1018.5
20260831153851 66 118 0.9 2.6 0.01 0.39 0.20 96 1018.4
20260831153346 66 238 0.9 2.6 0.02 0.39 0.20 96 1018.5
20260831152840 66 229 0.9 2.6 0.04 0.39 0.20 96 1018.5
20260831152335 66 248 0.9 2.6 0.05 0.38 0.19 96 1018.3
20260831151909 65 178 0.9 4.3 0.07 0.38 0.19 96 1018.2
20260831151405 65 215 0.9 4.3 0.07 0.38 0.19 96 1018.2
20260831150841 65 204 0.9 2.6 0.07 0.38 0.19 96 1018.2
20260831150336 65 244 0.0 2.6 0.07 0.38 0.19 95 1018.2
20260831145903 65 177 0.0 1.7 0.07 0.38 0.19 95 1018.2
20260831145338 65 188 0.0 2.6 0.07 0.38 0.19 95 1018.2
20260831144851 65 132 0.9 2.6 0.08 0.38 0.19 95 1018.2
20260831144405 65 173 0.9 2.6 0.08 0.38 0.19 95 1018.2
20260831143839 65 174 0.0 3.5 0.08 0.37 0.18 95 1018.2
20260831143354 65 242 1.7 3.5 0.09 0.37 0.18 95 1018.2
20260831142846 65 186 0.0 2.6 0.07 0.35 0.16 95 1018.1
20260831142340 65 186 0.9 2.6 0.06 0.33 0.14 95 1018.1
20260831141833 65 180 0.0 1.7 0.04 0.31 0.12 95 1018.1
20260831141348 65 180 0.9 2.6 0.04 0.31 0.12 95 1018.1
20260831140843 64 134 0.0 5.2 0.04 0.31 0.12 95 1018.1
20260831140338 64 144 0.9 5.2 0.05 0.31 0.12 95 1018.1
20260831135845 64 98 0.9 5.2 0.05 0.31 0.12 95 1018.2
20260831135344 64 161 1.7 5.2 0.05 0.31 0.12 95 1018.1
20260831134839 64 209 0.9 3.5 0.04 0.30 0.11 95 1018.1